This demonstration page uses our WeatherBlox Daily Observations layout. Learn more.

Left ArrowRight Arrow

39.01783, -85.05884

Hourly Observations for December 13, 2017

Temp ( °F °C ) Dew Point ( °F °C ) Humidity (%) Winds ( mph kmh ) Pressure ( in mb ) Visibility ( mi km ) Precip ( " mm )
12:52 am 00:52 Clear 18 -7.8 9 -12.8 68 68 W 8 13 30.01 1016 10 16 0.00 0.00
1:52 am 01:52 Partly Cloudy 18 -7.8 9 -12.8 68 68 W 7 11 30.00 1016 10 16 0.00 0.00
2:52 am 02:52 Mostly Clear 17 -8.3 9 -12.8 70 70 WSW 5 7 29.99 1016 10 16 0.00 0.00
3:52 am 03:52 Clear 16 -8.9 9 -12.8 74 74 SW 6 9 29.98 1015 10 16 0.00 0.00
4:52 am 04:52 Mostly Clear 17 -8.3 8 -13.3 68 68 WSW 6 9 29.97 1015 10 16 0.00 0.00
5:52 am 05:52 Cloudy 18 -7.8 10 -12.2 71 71 SSW 6 9 29.96 1015 10 16 0.00 0.00
6:52 am 06:52 Cloudy 20 -6.7 12 -11.1 71 71 SSW 7 11 29.94 1014 10 16 0.00 0.00
7:52 am 07:52 Cloudy 20 -6.7 12 -11.1 71 71 SSW 10 17 29.93 1013 10 16 0.00 0.00
8:52 am 08:52 Mostly Cloudy 22 -5.6 12 -11.1 66 66 S 12 19 29.91 1013 10 16 0.00 0.00
9:52 am 09:52 Cloudy 25 -3.9 12 -11.1 58 58 S 13 20 29.86 1011 10 16 0.00 0.00
10:52 am 10:52 Cloudy 27 -2.8 10 -12.2 49 49 SSW 10 17 29.84 1011 10 16 0.00 0.00
11:52 am 11:52 Cloudy 30 -1.1 10 -12.2 43 43 SSW 14 22 29.76 1008 10 16 0.00 0.00
12:52 pm 12:52 Cloudy 32 0 12 -11.1 43 43 S 13 20 29.66 1004 10 16 0.00 0.00
1:52 pm 13:52 Cloudy 35 1.7 12 -11.1 38 38 S 16 26 29.59 1002 10 16 0.00 0.00
2:52 pm 14:52 Cloudy 37 2.8 11 -11.7 34 34 S 20 31 29.50 999 10 16 0.00 0.00
3:52 pm 15:52 Cloudy 37 2.8 11 -11.7 34 34 SSW 20 31 29.52 1000 10 16 0.00 0.00
4:52 pm 16:52 Mostly Cloudy 38 3.3 14 -10 37 37 SSW 20 31 29.48 998 10 16 0.00 0.00
5:52 pm 17:52 Cloudy 39 3.9 15 -9.4 38 38 SW 17 28 29.49 999 10 16 0.00 0.00
6:52 pm 18:52 Cloudy 40 4.4 18 -7.8 41 41 SSW 13 20 29.47 998 10 16 0.00 0.00
7:52 pm 19:52 Cloudy 43 6.1 22 -5.6 43 43 SW 15 24 29.45 997 10 16 0.00 0.00
8:52 pm 20:52 Cloudy 45 7.2 26 -3.3 48 48 WSW 16 26 29.47 998 10 16 0.00 0.00
9:52 pm 21:52 Cloudy 42 5.6 33 0.6 71 71 W 28 44 29.53 1000 10 16 0.00 0.00
10:52 pm 22:52 Cloudy 41 5 30 -1.1 65 65 W 32 52 29.56 1001 10 16 0.00 0.00
11:52 pm 23:52 Cloudy 40 4.4 29 -1.7 65 65 WNW 21 33 29.60 1002 10 16 0.00 0.00

Powered by AerisWeather